Location: Twin Oaks Observatory
(35.2860°N, 85.1951°W)
Time: 08:39:15
(UTC-04:00)

Daily predictions for brighter satellites

Satellite Brightness Start Highest point End
(mag) Time Altitude Azimuth Time Altitude Azimuth Time Altitude Azimuth
Cosmos 1862 Rocket 3.6 21:08:57 10° N 21:13:27 75° E 21:17:53 10° SSE
Cosmos 1892 2.7 21:14:23 10° S 21:18:12 67° E 21:22:01 10° NNE
Cosmos 1937 Rocket 4.5 21:19:49 10° SW 21:24:48 51° WNW 21:29:49 10° N
Resurs 01 Rocket 1.8 21:21:55 10° S 21:26:19 77° WSW 21:30:46 10° NNW
OAO 3 Copernicus 4.4 21:21:24 10° WSW 21:26:22 62° SSE 21:31:21 10° E
Star 37E S/N 40062 4.4 21:27:18 10° SW 21:28:56 21° S 21:31:12 11° SE
CZ-2D R/B 3.9 21:25:21 10° S 21:29:11 60° W 21:33:04 10° NNW
Okean 1-7 4.2 21:25:49 10° NNE 21:29:30 26° ENE 21:32:56 11° SE
Cosmos 2346 Rocket 4.4 21:26:52 10° S 21:32:52 77° E 21:38:57 10° N
Cosmos 2263 4.3 21:28:32 10° S 21:34:10 59° ESE 21:39:49 10° NNE
YAOGAN 6 3.4 21:37:20 12° SE 21:40:21 35° ENE 21:43:44 10° N
Cosmos 2369 Rocket 2.3 21:35:56 10° SSW 21:41:35 83° WNW 21:47:18 10° NNE
ISS -0.8 21:39:43 10° WNW 21:42:06 18° NNW 21:44:29 10° NNE
Meteor 1-29 3.7 21:39:29 10° NNE 21:42:41 33° E 21:45:51 10° SSE
H-2A R/B 4.1 21:40:44 10° E 21:42:42 12° ENE 21:44:40 10° NE
CZ-4B DEB 3.9 21:41:28 16° ESE 21:42:52 23° ENE 21:45:16 10° NNE
Tiangong 2 1.3 21:41:47 10° WNW 21:44:58 63° SSW 21:47:06 19° SE
ERS-1 Rocket 4.0 21:43:43 14° ESE 21:47:06 29° ENE 21:51:23 10° N
Helios 1B rocket 2.4 21:46:00 10° NNE 21:50:04 61° E 21:54:06 10° S
Cosmos 1703 Rocket 3.5 21:46:34 10° N 21:50:57 71° E 21:55:11 11° SSE
DNEPR-1 R/B 3.9 21:46:51 10° SSW 21:52:23 89° WNW 21:57:02 10° NNE
GPS 2-04 Rocket1 2.4 21:49:12 10° W 21:53:02 84° S 21:55:27 20° ESE
Shenzhou-11 Module 3.0 21:50:23 10° WNW 21:53:14 35° SW 21:54:52 20° SSE
Cosmos 1606 3.5 21:51:28 10° NNE 21:54:54 33° E 21:56:41 22° SE
H-2A ROCKET BODY 2.5 21:53:26 10° WSW 21:55:53 29° S 21:58:45 18° SE
Cosmos 2084 3.2 21:52:24 10° NNW 21:56:16 85° NE 21:58:57 20° SSE
Cosmos 1733 Rocket 4.4 21:56:23 19° ESE 21:57:24 20° E 22:00:35 10° NE
Lacrosse 4 Rocket 2.9 21:53:51 10° N 21:57:36 25° ENE 21:59:44 18° E
Aureole 3 2.5 21:54:38 10° S 21:57:40 69° E 22:00:39 10° NNE
ATLAS 5 CENTAUR R/B 3.1 21:54:43 10° NNW 22:00:26 41° NE 22:04:39 19° ESE
Milstar 3 3.9 21:47:39 10° WSW 22:01:11 50° S 22:07:42 16° ESE
Cosmos 1048 Rocket 4.4 21:59:32 10° N 22:04:38 46° ENE 22:07:37 23° SE
Cosmos 1869 Rocket 3.7 22:01:52 10° SSW 22:06:12 75° W 22:10:33 10° N
Cosmos 1656 Rocket 4.2 22:02:19 11° SSE 22:06:59 35° ESE 22:11:57 10° NE
Cosmos 1408 2.5 22:04:01 12° S 22:07:25 72° E 22:11:09 10° N
SPOT 5 4.2 22:06:19 20° ESE 22:08:40 27° ENE 22:13:04 10° NNE
Cosmos 1346 Rocket 4.4 22:08:03 10° NNW 22:11:41 34° W 22:15:19 10° SSW
ARGOS 3.9 22:10:08 23° ESE 22:12:41 35° ENE 22:17:30 10° N
Lacrosse 5 rocket 4.1 22:10:53 10° W 22:13:24 18° NW 22:15:57 10° N
ORS 1 (USA 231) 4.5 22:13:42 10° WSW 22:16:42 78° NNW 22:18:05 29° ENE
CENTAUR R/B 3.0 22:11:10 10° SW 22:17:00 62° NW 22:23:39 10° NNE
Cosmos 372 Rocket 4.2 22:17:35 10° SSW 22:22:41 72° WNW 22:27:48 10° NNE
Envisat 4.5 22:20:43 10° SSW 22:25:17 34° W 22:29:53 10° NNW
Cosmos 1939 Rocket 4.4 22:22:50 10° SSW 22:26:38 35° W 22:30:26 10° NNW
Helios 1A 3.8 22:25:18 15° S 22:28:29 47° W 22:32:34 10° NNW
Meteor 1-27 Rocket 3.9 22:23:36 10° N 22:29:12 54° E 22:31:31 33° SE
Cosmos 1825 2.8 22:28:00 12° SSW 22:31:24 54° W 22:35:07 10° N
Meteor 1-10 Rocket 4.4 22:25:46 10° N 22:31:43 82° W 22:35:46 21° S
Meteor 2-6 Rocket 4.3 22:26:56 10° N 22:32:56 87° W 22:36:48 23° S
SL-08 RB Rocket 4.3 22:32:59 36° ESE 22:34:04 42° ENE 22:38:27 10° N
Cosmos 2221 Rocket 4.3 22:30:25 10° NNW 22:34:44 51° W 22:37:51 18° SSW
Cosmos 1674 Rocket 4.4 22:34:02 10° NNE 22:37:55 32° ENE 22:37:55 32° ENE
SPOT 1/Viking Rocket 4.2 22:39:33 35° ESE 22:40:45 40° ENE 22:45:35 10° N
MetOp-A 4.0 22:40:22 34° SSE 22:42:49 87° ENE 22:48:12 10° NNW
Cosmos 1269 Rocket 4.0 22:40:27 10° NNW 22:45:44 78° WSW 22:47:51 37° S
H-2A R/B 4.4 22:50:34 10° NE 22:50:34 10° NE 22:50:58 10° NE
Cosmos 1782 4.3 22:49:21 10° NNW 22:52:56 33° W 22:54:51 21° SW
Cosmos 2227 Rocket 4.5 22:52:50 10° NE 22:53:44 10° NE 22:54:38 10° ENE
Cosmos 1943 Rocket 3.8 22:51:05 10° SW 22:56:05 33° WNW 23:01:06 10° N
Nadezhda 4 Rocket 3.9 22:53:34 28° S 22:57:01 87° E 23:03:12 10° N
Cosmos 1092 Rocket 4.0 22:56:29 44° SSE 22:58:14 61° E 23:04:16 10° NNE
Cosmos 2219 4.0 22:57:57 10° N 23:03:14 36° ENE 23:04:04 35° E
USA 245 4.5 23:02:15 39° S 23:04:44 81° WSW 23:11:08 10° NNW
YAOGAN 11 4.0 23:04:23 73° SSE 23:04:49 90° WSW 23:09:21 10° NNW
Landsat 7 4.3 23:05:14 45° ENE 23:05:14 45° ENE 23:09:43 10° N
Intercosmos 25 Rocket 3.6 23:01:32 10° N 23:07:46 80° E 23:08:06 74° SE
Cosmos 1340 4.0 23:05:12 10° NNW 23:08:38 33° W 23:09:15 31° WSW
Cosmos 494 Rocket 4.0 23:04:44 10° N 23:09:53 59° ENE 23:10:11 58° E
OAO 3 Copernicus 4.1 23:05:49 10° W 23:10:51 89° S 23:11:17 75° E
Cosmos 1908 Rocket 3.9 23:12:37 54° NE 23:12:37 54° NE 23:16:17 10° NNE
Meteor 1-14 Rocket 4.4 23:13:13 54° ESE 23:13:28 54° E 23:19:07 10° NNE
Terra 2.5 23:20:55 43° NE 23:20:55 43° NE 23:24:53 10° N
Cosmos 1867 3.5 23:15:24 10° NNW 23:20:50 66° ENE 23:21:08 65° E
H-2A R/B 2.1 23:20:37 64° SSW 23:21:25 79° WSW 23:26:46 10° NNW
Cosmos 2344 4.4 23:14:49 10° SW 23:22:12 50° NW 23:30:18 10° NNE
Lacrosse 4 Rocket 3.2 23:32:30 10° NW 23:36:05 26° WSW 23:36:05 26° WSW
ATLAS CENTAUR R/B 2.7 23:41:20 36° NW 23:41:20 36° NW 23:44:47 10° NNE
SL-19 R/B 4.4 23:35:06 10° NNE 23:41:05 68° E 23:41:05 68° E
USA 215 3.1 23:40:49 68° SE 23:41:45 86° SW 23:48:22 10° NW
ATLAS 5 CENTAUR R/B 3.5 23:39:34 10° NW 23:45:06 34° WSW 23:46:13 32° SW
Cosmos 2195 Rocket 4.5 23:45:28 68° SSW 23:46:19 80° W 23:52:40 10° N
SPOT 5 4.3 23:45:34 31° WSW 23:46:30 33° W 23:51:17 10° NNW
Cosmos 2297 Rocket 3.7 23:44:00 10° N 23:48:21 24° NE 23:48:21 24° NE
Meteor 1-18 Rocket 4.4 23:43:07 10° N 23:48:21 62° NE 23:48:21 62° NE
